Location: El Álamo
(40.2307°N, 3.9945°W)
Time: 04:13:09
(UTC+00:00)

Okean O Rocket - Pass Details

Date: 19 May 2025
Orbit: 614 x 636 km, 98.0° (Epoch: 23 June)

Event Time Altitude Azimuth Distance (km) Brightness Sun altitude
Exits shadow 19:57:35 - 129° (SE) 2,286 3.8 -5.6°
Reaches altitude 10° 19:58:23 10° 124° (ESE) 2,001 3.5 -5.7°
Maximum altitude 20:01:58 25° 68° (ENE) 1,256 2.8 -6.3°
Drops below altitude 10° 20:05:33 10° 13° (NNE) 2,002 4.5 -6.8°
Sets 20:08:01 0° 1° (N) 2,909 5.5 -7.2°
